Temp
12 13 13 13 14 14 14 14 14 14 14 14 14 14 14 14 14 14 14 13 13 13 13 13 13 13 13 13 13 13 13 13 13 13 13 13 12 12 12 12 12 12 11 11 11 11 11 11 11 11 11 10 10 10 10 10 10 10 10 9 9 9 8 8 8 8 8 8 8
11 12 12 12 13 13 13 14 14 14 14 14 14 14 14 14 14 13 13 13 13 13 13 13 13 13 12 12 12 12 12 12 12 12 12 12 12 12 12 12 11 11 11 11 11 11 11 11 10 10 10 10 10 10 10 10 10 10 10 10 9 9 9 8 8 8 8 8 8
11 11 11 11 12 12 12 13 13 13 13 13 13 13 13 13 13 13 13 13 13 13 13 13 13 12 12 12 12 12 12 12 12 12 11 11 11 11 11 11 11 11 11 10 10 10 10 10 10 10 10 10 10 10 10 10 10 10 9 9 9 9 9 8 8 8 8 8 8
11 11 11 11 11 11 12 12 12 12 12 13 13 13 13 13 13 13 13 13 13 13 13 12 12 12 12 12 12 12 12 12 12 12 11 11 11 11 11 11 11 10 10 10 10 10 10 10 10 10 10 10 10 10 9 9 9 9 9 9 9 9 8 8 8 8 8 8 8
11 11 11 11 11 11 11 12 12 12 12 12 12 12 12 12 12 12 12 12 12 12 12 12 12 12 12 12 12 12 11 12 11 11 11 11 11 11 11 11 11 11 10 10 10 10 10 10 9 9 9 9 9 9 9 9 9 9 9 9 8 8 8 8 8 8 8 8 8
11 11 11 11 11 11 11 12 12 12 12 12 12 12 12 12 12 12 12 12 12 12 12 12 12 11 11 11 11 11 11 11 11 11 11 11 11 11 11 11 11 11 11 10 10 10 10 9 9 9 9 9 9 8 8 8 8 8 8 8 8 8 8 8 8 8 8 8 8
11 11 11 11 11 11 11 11 11 12 12 12 12 12 12 12 12 12 12 12 12 12 12 11 11 11 11 11 11 11 11 11 11 11 11 11 11 11 11 11 11 11 11 11 10 10 9 9 9 8 8 8 8 8 8 8 8 8 8 8 8 8 8 8 8 8 8 7 7
11 11 11 11 11 11 11 11 11 11 11 11 11 11 11 11 12 12 12 12 12 12 12 12 11 11 11 11 11 11 11 11 11 11 11 11 11 11 11 11 11 11 11 11 10 10 9 9 9 9 9 9 8 8 8 8 8 8 8 8 8 8 8 8 8 7 7 7 7
10 11 11 11 11 11 11 11 11 11 11 11 11 11 11 11 11 12 12 12 12 12 12 12 12 12 12 12 12 12 12 12 12 12 12 12 12 11 11 11 11 11 10 10 10 10 9 9 9 9 9 9 8 8 8 8 8 7 7 7 7 7 7 7 7 7 7 7 7
10 10 10 10 11 11 11 11 11 11 10 10 10 10 10 11 11 11 12 12 12 12 12 12 12 12 12 12 12 12 12 12 12 12 12 12 12 11 11 11 10 10 10 10 10 10 10 10 10 10 9 9 9 9 9 8 8 7 7 7 7 7 7 7 7 7 7 7 7
10 10 10 10 10 10 10 10 10 10 9 9 9 9 10 11 11 11 11 12 11 11 11 11 11 11 11 11 11 11 12 12 12 12 12 12 12 11 11 10 10 10 10 9 9 9 9 10 10 10 10 10 10 10 10 10 9 8 8 7 7 6 6 7 7 7 7 6 6
10 10 10 10 10 10 10 10 9 9 8 8 9 9 10 11 11 11 11 11 11 11 11 11 11 11 11 11 11 11 11 11 11 11 11 11 11 11 11 10 10 10 9 9 9 9 9 9 9 10 10 10 10 11 11 11 10 9 9 8 8 7 7 6 7 7 6 6 6
9 9 9 9 9 10 9 9 8 8 8 8 9 9 10 10 11 11 11 11 11 11 11 11 11 11 11 11 11 11 11 11 11 11 11 11 11 11 10 10 10 10 9 9 9 9 9 8 8 9 9 9 10 10 10 10 10 9 9 9 8 8 7 6 6 6 6 6 5
9 9 9 9 9 9 9 9 8 8 8 9 9 9 10 10 10 10 11 11 11 11 11 11 11 11 11 11 11 11 11 11 11 11 11 10 10 10 10 10 9 9 9 9 9 8 8 8 8 8 8 8 9 9 9 9 9 9 9 9 9 8 7 7 6 6 6 5 5
9 9 9 9 9 9 9 9 8 8 9 9 9 9 10 10 10 10 10 10 10 10 10 10 10 10 10 10 10 10 10 10 10 10 10 9 9 9 9 9 9 9 8 8 8 8 7 7 7 7 8 8 8 9 9 9 9 9 9 9 8 8 8 7 6 6 5 5 5
8 8 8 9 9 9 9 9 9 9 9 9 9 9 10 10 10 10 10 10 10 10 10 10 10 10 10 10 10 10 10 10 9 9 9 9 8 8 8 8 8 8 8 8 8 7 7 7 7 7 8 8 8 8 8 8 9 9 9 8 8 8 8 7 6 5 5 4 4
8 8 8 8 8 8 8 8 8 9 9 9 9 9 9 10 10 10 9 9 9 10 10 10 9 9 9 9 9 9 9 9 9 8 8 8 8 8 8 8 7 7 7 7 7 7 7 7 7 7 8 8 8 8 8 8 8 8 8 8 8 8 8 7 6 5 4 4 4
8 8 8 8 8 8 8 8 8 8 9 9 9 9 9 9 9 9 9 9 9 9 9 9 9 9 9 8 8 8 8 8 7 7 7 7 7 7 7 7 7 7 7 6 6 6 7 7 7 7 7 7 7 7 8 8 8 8 8 7 7 7 7 7 6 5 4 4 4
7 7 7 8 8 8 8 8 8 8 8 8 8 8 8 8 9 9 9 9 9 9 9 8 8 8 8 8 7 7 7 7 7 6 6 6 6 6 6 6 6 6 6 6 6 6 6 6 6 7 7 7 7 7 7 7 7 7 7 7 7 7 7 7 6 5 4 3 3
7 7 7 7 7 8 8 8 8 8 8 8 8 8 8 8 8 8 8 8 8 8 8 8 8 7 7 7 7 7 6 6 6 6 6 5 5 5 6 6 6 5 5 5 5 5 6 6 6 6 6 6 6 6 6 6 6 6 6 6 7 7 6 6 5 4 3 3 2
6 7 7 7 7 7 7 7 7 7 7 7 7 7 7 7 8 8 8 8 7 7 7 7 7 7 7 6 6 6 6 5 5 5 5 5 5 5 5 5 5 5 5 5 5 5 5 5 5 5 5 5 5 5 6 6 6 6 6 6 6 6 5 4 3 3 2 2 1
6 6 6 6 6 6 6 6 6 6 6 6 7 7 7 7 7 7 7 7 7 7 7 7 7 7 6 6 6 6 5 5 4 4 5 5 5 5 5 5 5 5 5 5 5 5 5 5 5 5 5 5 5 5 5 5 6 6 6 5 5 4 4 3 3 2 1 1 0
5 5 5 5 5 5 5 5 5 6 6 6 6 6 6 6 6 6 6 6 6 6 6 6 6 6 6 6 6 5 5 5 5 5 5 5 5 5 5 5 5 5 5 5 5 5 5 5 5 5 5 4 4 4 5 5 5 5 5 5 4 3 3 3 2 1 0 0 -0
4 4 4 4 5 5 5 5 5 5 5 6 6 6 6 6 6 6 6 6 6 6 6 6 6 6 6 6 6 6 5 5 5 5 5 5 5 5 5 5 5 5 5 4 4 4 4 4 4 4 4 4 4 4 4 4 4 4 4 3 3 2 2 2 1 0 -0 -0 -1
4 4 4 4 4 4 4 4 4 5 5 5 5 5 5 5 6 6 6 6 6 6 6 6 6 6 6 6 6 5 5 5 5 5 5 5 5 5 5 5 5 4 4 4 4 4 3 3 3 3 3 3 3 3 3 3 3 3 3 2 2 2 1 1 0 -0 -0 -1 -1
3 3 3 3 3 4 4 4 4 4 4 5 5 5 5 5 5 6 6 6 6 6 6 6 6 6 6 5 5 5 5 5 5 5 5 5 4 4 4 4 4 4 4 4 3 3 3 3 3 2 2 2 3 3 3 2 2 2 2 1 1 1 0 -0 -0 -1 -1 -1 -1
3 3 3 3 3 3 3 3 4 4 4 4 4 5 5 5 5 5 6 6 6 5 5 6 5 5 5 5 5 5 5 5 5 5 4 4 4 4 4 4 3 3 3 2 2 2 2 2 2 2 2 2 2 2 2 2 1 1 1 1 0 0 -0 -1 -1 -1 -1 -1 -1
2 3 3 3 3 3 3 3 3 3 3 4 4 4 4 5 5 5 5 5 5 5 5 5 5 5 5 5 5 5 5 4 4 4 4 4 4 4 3 3 3 2 2 1 1 1 1 1 1 1 1 1 1 1 1 1 1 0 0 -0 -0 -0 -1 -1 -1 -1 -1 -1 -1
2 2 2 2 3 3 3 3 3 3 3 3 4 4 4 4 5 5 5 5 5 5 5 5 4 4 4 4 4 4 4 4 3 3 3 3 3 3 3 2 2 2 1 1 1 1 1 1 1 1 1 0 0 0 0 0 0 -0 -0 -0 -0 -0 -1 -1 -1 -1 -1 -1 -1
2 2 2 2 2 2 2 2 2 2 3 3 3 3 4 4 4 4 4 4 4 4 4 4 4 4 4 3 3 3 3 3 2 2 2 2 2 2 2 2 2 1 1 1 1 1 1 1 1 1 1 0 0 0 0 0 0 0 -0 -0 -0 -0 -0 -0 -1 -1 -1 -1 -1
1 1 2 2 2 2 2 2 2 2 2 3 3 3 3 3 3 4 4 4 4 3 3 3 3 3 3 2 2 2 2 2 2 2 2 2 2 2 1 1 1 1 1 1 1 1 1 1 1 1 1 1 1 1 1 0 0 0 -0 -0 -0 -0 -1 -1 -1 -1 -1 -1 -1
1 1 1 1 1 1 1 1 1 2 2 2 3 3 3 3 3 3 3 3 3 3 2 2 2 2 2 1 1 1 1 1 1 1 1 1 1 1 1 1 1 1 1 1 1 1 1 1 1 1 1 1 0 0 0 -0 -0 -0 -0 -1 -1 -1 -1 -1 -1 -1 -1 -1 -1
0 0 0 0 1 1 1 1 1 1 2 2 2 3 3 3 3 3 3 2 2 2 2 2 1 1 1 1 1 1 1 1 1 0 0 0 0 0 1 1 1 1 1 1 1 1 1 0 0 0 0 -0 -0 -0 -0 -1 -1 -1 -1 -1 -1 -1 -1 -1 -1 -1 -1 -1 -1
-1 -0 -0 -0 0 0 1 1 1 1 2 2 2 2 2 2 2 2 2 2 2 1 1 1 1 1 1 0 0 0 0 0 -0 -0 -0 -0 -0 0 0 1 1 0 0 0 0 0 0 0 0 -0 -0 -0 -1 -1 -1 -1 -1 -1 -1 -1 -1 -1 -1 -1 -1 -1 -1 -1 -1
-1 -1 -0 0 0 1 1 1 1 1 2 2 2 2 2 2 1 1 1 1 1 1 1 1 0 0 0 -0 -0 -0 -0 -0 -0 -0 -0 -0 -0 0 0 1 1 1 0 0 0 0 0 -0 -0 -0 -0 -1 -1 -1 -1 -1 -1 -1 -1 -1 -1 -1 -2 -2 -2 -2 -2 -1 -1
-1 -0 0 1 1 1 1 1 1 1 1 2 2 2 2 1 1 1 1 1 1 0 0 0 -0 -0 -0 -0 -0 -0 -0 -0 -0 -0 -0 0 0 0 0 1 1 1 1 0 0 -0 -0 -0 -1 -1 -1 -1 -1 -1 -1 -2 -2 -2 -2 -2 -2 -2 -2 -2 -1 -1 -1 -1 -1
-0 0 1 1 1 1 1 1 1 1 1 1 1 1 1 1 1 1 0 0 0 0 0 -0 -0 -0 -0 -0 -0 -0 -0 -0 -0 0 0 0 0 0 1 1 1 1 0 0 -0 -1 -1 -1 -1 -2 -2 -2 -2 -2 -2 -2 -2 -2 -1 -1 -1 -1 -1 -1 -1 -1 -1 -1 -1
0 0 1 1 1 1 1 1 1 1 1 1 1 1 1 1 1 0 0 0 0 0 0 0 -0 -0 -0 -0 -0 -0 -0 -0 0 0 0 0 1 0 0 0 0 0 0 -0 -1 -1 -1 -1 -2 -2 -2 -2 -1 -1 -1 -1 -1 -1 -1 -1 -1 -1 -1 -1 -1 -1 -2 -2 -2
0 0 0 0 0 0 0 0 1 1 1 1 1 1 1 1 1 0 0 0 0 0 0 -0 -0 -0 -0 -0 -0 -0 -0 0 0 0 0 0 0 0 0 0 0 -0 -0 -0 -1 -1 -1 -1 -1 -1 -1 -1 -1 -1 -1 -1 -1 -1 -1 -1 -1 -1 -1 -2 -2 -2 -2 -2 -3
0 0 0 0 0 0 0 0 1 1 1 1 1 1 1 1 1 0 0 0 0 -0 -0 -0 -0 -0 -0 -0 -0 -0 0 0 0 0 0 0 0 0 0 0 0 0 -0 -0 -0 -1 -1 -1 -1 -1 -1 -0 -0 -1 -1 -1 -1 -1 -1 -1 -2 -2 -2 -2 -2 -2 -2 -3 -3
0 0 0 0 0 0 0 0 1 1 1 1 1 1 1 1 1 0 0 0 -0 -0 -0 -0 -0 -0 -0 -0 -0 0 0 0 0 0 0 0 0 0 0 0 0 0 0 -0 -0 -0 -0 -0 -1 -1 -1 -1 -1 -1 -1 -2 -2 -2 -2 -2 -3 -3 -3 -3 -3 -3 -3 -3 -3
Height
1495 1495 1495 1495 1495 1496 1496 1497 1497 1498 1498 1498 1499 1499 1500 1500 1500 1501 1501 1501 1501 1500 1501 1501 1501 1501 1502 1502 1502 1502 1503 1503 1503 1503 1502 1502 1502 1502 1502 1501 1501 1501 1501 1502 1502 1502 1501 1501 1501 1501 1501 1501 1501 1500 1500 1500 1500 1499 1498 1498 1497 1496 1496 1497 1498 1498 1498 1497 1496
1494 1494 1494 1494 1494 1495 1495 1495 1496 1496 1497 1497 1498 1498 1498 1499 1499 1499 1500 1500 1500 1500 1500 1500 1500 1500 1500 1500 1500 1500 1500 1500 1501 1501 1501 1500 1500 1500 1500 1500 1500 1500 1500 1500 1500 1500 1500 1500 1500 1499 1499 1499 1499 1499 1498 1498 1498 1497 1497 1496 1495 1494 1494 1494 1495 1495 1495 1495 1495
1493 1493 1493 1493 1493 1493 1494 1494 1494 1495 1495 1495 1496 1497 1497 1497 1498 1498 1498 1498 1499 1499 1499 1499 1499 1499 1499 1499 1499 1499 1499 1499 1499 1499 1499 1499 1498 1499 1499 1499 1499 1499 1499 1499 1499 1499 1499 1498 1498 1498 1498 1497 1497 1497 1496 1496 1496 1496 1495 1495 1494 1493 1493 1492 1493 1493 1493 1493 1493
1492 1492 1492 1492 1492 1492 1492 1492 1493 1493 1494 1494 1495 1495 1496 1496 1496 1496 1496 1497 1497 1498 1498 1498 1498 1497 1497 1497 1497 1498 1498 1498 1498 1497 1497 1497 1497 1497 1497 1497 1497 1497 1497 1497 1497 1497 1497 1496 1496 1496 1496 1496 1495 1495 1495 1495 1495 1494 1494 1493 1493 1493 1492 1492 1492 1492 1492 1491 1491
1492 1492 1492 1491 1491 1491 1491 1492 1492 1492 1492 1493 1494 1494 1494 1494 1494 1495 1495 1495 1496 1496 1496 1496 1496 1495 1495 1495 1496 1496 1496 1496 1496 1496 1495 1496 1495 1495 1495 1495 1495 1495 1495 1495 1495 1495 1495 1495 1495 1495 1495 1494 1494 1494 1494 1493 1493 1493 1492 1492 1492 1491 1491 1491 1491 1491 1490 1490 1490
1492 1492 1492 1492 1492 1492 1492 1492 1492 1492 1492 1492 1492 1492 1492 1493 1493 1493 1493 1494 1494 1495 1495 1495 1494 1494 1494 1494 1495 1495 1495 1495 1495 1495 1495 1494 1495 1495 1495 1494 1494 1494 1493 1493 1493 1493 1493 1493 1493 1493 1493 1493 1492 1492 1492 1492 1492 1491 1491 1491 1490 1490 1490 1490 1489 1489 1489 1489 1489
1491 1491 1491 1491 1491 1492 1492 1492 1492 1492 1492 1492 1492 1491 1491 1491 1491 1491 1492 1492 1493 1493 1493 1493 1493 1493 1493 1493 1493 1494 1494 1494 1495 1494 1494 1494 1494 1493 1493 1493 1493 1492 1492 1492 1491 1491 1491 1491 1491 1491 1491 1491 1491 1491 1490 1490 1490 1490 1490 1490 1490 1489 1489 1488 1488 1488 1488 1487 1487
1490 1491 1491 1491 1491 1491 1491 1491 1491 1491 1491 1491 1491 1491 1490 1490 1490 1491 1491 1491 1492 1492 1492 1492 1492 1493 1492 1492 1492 1492 1493 1493 1494 1494 1493 1493 1493 1493 1492 1492 1491 1491 1491 1490 1490 1490 1489 1489 1489 1489 1489 1489 1489 1489 1489 1489 1489 1489 1489 1489 1488 1488 1488 1487 1487 1486 1486 1486 1486
1490 1490 1490 1490 1490 1490 1490 1490 1490 1490 1490 1490 1490 1490 1490 1490 1490 1490 1490 1491 1491 1491 1491 1492 1492 1492 1492 1491 1491 1491 1491 1492 1492 1492 1492 1492 1491 1491 1491 1490 1490 1490 1490 1489 1489 1488 1488 1488 1488 1487 1487 1487 1487 1487 1487 1487 1487 1487 1487 1487 1487 1487 1486 1486 1485 1485 1485 1485 1485
1489 1489 1489 1489 1490 1490 1490 1490 1490 1490 1490 1490 1489 1488 1488 1488 1489 1490 1490 1490 1490 1490 1490 1490 1491 1491 1490 1490 1490 1490 1490 1490 1490 1490 1490 1490 1490 1490 1489 1489 1489 1489 1488 1488 1488 1487 1487 1487 1486 1486 1486 1485 1485 1485 1485 1485 1486 1486 1486 1486 1486 1486 1485 1485 1484 1484 1483 1483 1483
1488 1488 1488 1489 1489 1489 1489 1489 1489 1489 1489 1488 1487 1486 1486 1487 1488 1488 1489 1489 1489 1489 1489 1489 1489 1489 1489 1489 1489 1488 1488 1489 1489 1489 1489 1488 1488 1488 1488 1487 1487 1487 1487 1487 1487 1486 1486 1486 1485 1485 1484 1483 1483 1482 1482 1483 1484 1485 1485 1485 1485 1484 1484 1483 1483 1482 1482 1482 1481
1487 1487 1487 1487 1487 1488 1488 1488 1488 1488 1487 1486 1485 1485 1485 1486 1487 1487 1487 1487 1487 1487 1487 1487 1487 1488 1487 1487 1487 1487 1487 1487 1487 1487 1486 1486 1486 1486 1486 1485 1485 1485 1485 1485 1485 1485 1485 1485 1484 1484 1483 1482 1481 1480 1480 1481 1482 1483 1484 1484 1484 1484 1483 1482 1481 1481 1480 1480 1480
1486 1486 1486 1486 1486 1486 1487 1487 1486 1486 1485 1484 1484 1484 1485 1485 1485 1485 1486 1486 1486 1485 1485 1485 1486 1486 1486 1485 1485 1485 1485 1485 1485 1485 1485 1485 1484 1484 1484 1484 1484 1483 1483 1483 1483 1483 1483 1483 1482 1482 1482 1481 1481 1480 1480 1480 1480 1481 1481 1482 1482 1482 1481 1481 1480 1480 1479 1479 1478
1485 1485 1485 1485 1485 1485 1485 1485 1484 1484 1483 1483 1483 1483 1483 1484 1484 1484 1484 1484 1484 1484 1484 1484 1484 1484 1484 1484 1483 1483 1483 1483 1483 1483 1483 1483 1483 1483 1483 1482 1482 1482 1482 1482 1481 1481 1481 1481 1481 1481 1480 1480 1480 1479 1479 1479 1478 1479 1479 1479 1480 1480 1480 1479 1479 1479 1478 1477 1477
1483 1483 1483 1483 1483 1483 1483 1483 1482 1482 1482 1482 1482 1482 1482 1482 1482 1483 1483 1482 1482 1482 1482 1482 1482 1482 1482 1482 1482 1481 1481 1481 1481 1481 1481 1481 1481 1481 1481 1481 1481 1481 1481 1480 1480 1480 1480 1480 1480 1479 1479 1479 1478 1477 1477 1477 1477 1477 1477 1477 1477 1477 1477 1477 1477 1477 1476 1476 1475
1482 1482 1482 1482 1482 1482 1482 1481 1481 1480 1480 1481 1480 1480 1481 1481 1481 1481 1481 1480 1480 1480 1480 1480 1480 1480 1480 1480 1480 1480 1480 1479 1480 1480 1480 1480 1480 1480 1480 1480 1480 1479 1479 1479 1479 1478 1478 1478 1478 1478 1477 1477 1476 1476 1475 1475 1475 1475 1475 1475 1475 1475 1475 1476 1476 1475 1475 1474 1473
1480 1480 1480 1480 1480 1480 1480 1480 1480 1479 1479 1479 1479 1479 1479 1479 1479 1479 1479 1479 1479 1479 1479 1479 1479 1479 1479 1478 1478 1478 1478 1478 1478 1478 1478 1478 1478 1478 1478 1478 1478 1478 1477 1477 1477 1477 1477 1477 1476 1476 1475 1475 1475 1474 1474 1474 1474 1474 1473 1473 1473 1474 1474 1474 1474 1474 1473 1473 1472
1479 1479 1479 1479 1479 1479 1479 1479 1478 1478 1478 1478 1478 1478 1478 1477 1477 1477 1477 1477 1477 1477 1477 1477 1477 1477 1477 1477 1477 1477 1476 1476 1476 1476 1476 1476 1476 1476 1476 1476 1476 1476 1476 1476 1476 1475 1475 1475 1475 1474 1474 1473 1473 1473 1472 1472 1472 1472 1472 1472 1472 1472 1472 1472 1473 1473 1472 1472 1471
1478 1477 1477 1477 1477 1477 1477 1477 1477 1477 1477 1477 1476 1476 1476 1476 1476 1475 1475 1475 1475 1475 1475 1475 1475 1475 1475 1475 1475 1475 1475 1475 1475 1475 1475 1475 1475 1475 1475 1475 1475 1475 1474 1474 1474 1474 1473 1473 1473 1472 1472 1471 1471 1471 1471 1470 1470 1470 1470 1470 1470 1470 1470 1471 1471 1471 1471 1470 1470
1476 1476 1476 1476 1476 1476 1476 1476 1476 1476 1475 1475 1475 1475 1475 1474 1474 1474 1474 1474 1474 1474 1474 1474 1474 1474 1474 1474 1474 1474 1473 1473 1473 1473 1473 1473 1474 1474 1474 1474 1474 1473 1473 1473 1472 1472 1472 1471 1471 1471 1470 1470 1470 1470 1470 1470 1469 1469 1469 1469 1469 1469 1469 1469 1469 1469 1469 1469 1468
1475 1475 1475 1475 1475 1475 1475 1475 1475 1474 1474 1474 1474 1473 1473 1473 1473 1473 1473 1473 1473 1473 1473 1473 1473 1473 1473 1472 1472 1472 1472 1472 1472 1472 1472 1472 1472 1472 1472 1472 1472 1472 1472 1472 1471 1471 1471 1470 1470 1470 1470 1469 1469 1469 1469 1468 1468 1468 1468 1468 1467 1467 1467 1467 1468 1468 1468 1468 1467
1474 1474 1474 1474 1474 1474 1473 1473 1473 1473 1473 1473 1472 1472 1472 1472 1472 1472 1472 1472 1472 1472 1472 1472 1472 1472 1472 1472 1472 1472 1472 1472 1472 1472 1472 1472 1472 1472 1472 1471 1471 1471 1471 1471 1471 1470 1470 1470 1470 1469 1469 1469 1468 1468 1468 1467 1467 1467 1467 1467 1467 1466 1466 1467 1467 1468 1468 1467 1467
1473 1473 1473 1473 1473 1472 1472 1472 1472 1472 1472 1471 1471 1471 1471 1471 1471 1471 1471 1471 1471 1471 1471 1471 1471 1471 1471 1471 1471 1471 1471 1471 1471 1471 1471 1471 1471 1471 1471 1471 1471 1470 1470 1470 1470 1470 1470 1470 1469 1469 1468 1468 1468 1467 1467 1467 1467 1467 1466 1466 1466 1466 1466 1467 1467 1468 1468 1468 1468
1472 1472 1472 1472 1472 1471 1471 1471 1471 1471 1470 1470 1470 1470 1470 1470 1470 1470 1470 1470 1470 1470 1470 1471 1471 1471 1471 1471 1471 1471 1471 1471 1471 1471 1471 1470 1470 1470 1470 1470 1470 1470 1470 1470 1470 1470 1469 1469 1469 1468 1468 1468 1467 1467 1467 1467 1466 1466 1466 1465 1465 1466 1466 1467 1467 1468 1468 1468 1468
1471 1471 1471 1471 1471 1471 1470 1470 1470 1470 1470 1470 1470 1470 1470 1470 1470 1470 1470 1470 1470 1470 1470 1470 1470 1470 1470 1470 1470 1470 1471 1471 1471 1470 1470 1470 1470 1470 1470 1470 1469 1469 1469 1469 1469 1469 1469 1469 1469 1468 1468 1468 1467 1467 1467 1466 1466 1465 1465 1465 1466 1466 1466 1467 1467 1468 1468 1468 1468
1470 1470 1470 1470 1470 1470 1470 1470 1470 1469 1469 1469 1469 1469 1469 1469 1469 1469 1469 1469 1469 1469 1469 1470 1470 1470 1470 1470 1470 1470 1470 1470 1470 1470 1470 1470 1469 1469 1469 1469 1469 1469 1469 1469 1469 1469 1469 1469 1469 1468 1468 1468 1467 1467 1467 1466 1466 1465 1466 1466 1466 1466 1467 1467 1468 1468 1468 1468 1468
1470 1470 1470 1469 1469 1469 1469 1469 1469 1469 1469 1469 1469 1469 1469 1469 1469 1468 1468 1468 1469 1469 1469 1469 1469 1470 1470 1470 1470 1470 1470 1470 1470 1470 1469 1469 1469 1469 1469 1468 1468 1468 1468 1469 1469 1469 1469 1469 1469 1468 1468 1468 1467 1467 1467 1466 1466 1466 1466 1466 1467 1467 1467 1468 1468 1468 1469 1469 1469
1469 1469 1469 1469 1469 1469 1469 1469 1469 1468 1468 1468 1468 1468 1468 1468 1468 1468 1468 1468 1468 1468 1468 1469 1469 1469 1470 1470 1470 1470 1470 1470 1469 1469 1469 1469 1469 1469 1468 1468 1469 1469 1469 1469 1469 1469 1469 1469 1468 1468 1468 1468 1467 1467 1467 1467 1467 1467 1467 1467 1467 1467 1468 1468 1468 1469 1469 1469 1469
1469 1469 1469 1468 1468 1468 1468 1468 1468 1468 1468 1468 1468 1468 1468 1468 1467 1467 1467 1467 1468 1468 1468 1469 1469 1469 1470 1470 1470 1470 1470 1470 1470 1470 1469 1469 1469 1469 1469 1469 1469 1469 1469 1469 1469 1469 1469 1469 1469 1468 1468 1468 1468 1467 1467 1467 1467 1467 1467 1468 1468 1468 1468 1469 1469 1469 1469 1469 1470
1469 1469 1468 1468 1468 1468 1468 1468 1468 1468 1468 1468 1468 1468 1467 1467 1467 1467 1467 1467 1468 1468 1468 1469 1469 1470 1470 1470 1470 1470 1470 1470 1470 1470 1470 1470 1470 1470 1470 1470 1470 1470 1470 1470 1470 1470 1470 1470 1470 1470 1470 1469 1469 1468 1468 1468 1468 1468 1468 1468 1468 1469 1469 1469 1469 1469 1470 1470 1470
1469 1469 1468 1468 1468 1468 1468 1468 1468 1468 1468 1468 1468 1467 1467 1467 1467 1467 1467 1468 1468 1468 1469 1469 1470 1470 1470 1470 1470 1470 1470 1470 1470 1470 1470 1470 1470 1470 1470 1470 1470 1470 1470 1470 1470 1470 1470 1470 1470 1470 1470 1470 1470 1469 1469 1469 1469 1469 1469 1469 1469 1469 1469 1469 1469 1470 1470 1470 1470
1469 1469 1469 1468 1468 1468 1468 1468 1468 1468 1468 1468 1467 1467 1467 1467 1467 1467 1468 1468 1468 1469 1469 1470 1470 1470 1470 1470 1470 1470 1470 1470 1470 1470 1470 1470 1469 1469 1469 1470 1470 1470 1470 1470 1470 1470 1470 1470 1470 1470 1470 1470 1470 1470 1470 1469 1469 1469 1469 1469 1469 1469 1469 1470 1470 1470 1470 1470 1470
1469 1469 1469 1469 1468 1468 1468 1468 1468 1468 1468 1468 1467 1467 1467 1467 1467 1468 1468 1468 1469 1469 1470 1470 1470 1470 1470 1470 1470 1470 1470 1470 1470 1470 1470 1470 1470 1470 1470 1470 1470 1470 1470 1470 1470 1470 1471 1471 1471 1471 1470 1470 1470 1470 1470 1470 1470 1470 1470 1470 1470 1470 1470 1470 1470 1469 1469 1469 1469
1469 1469 1469 1469 1468 1468 1468 1468 1468 1468 1468 1468 1468 1467 1468 1468 1468 1468 1468 1469 1469 1470 1470 1470 1470 1471 1471 1471 1471 1471 1471 1471 1471 1471 1470 1470 1471 1471 1471 1470 1470 1470 1471 1471 1471 1471 1471 1471 1471 1471 1471 1471 1470 1470 1470 1470 1470 1470 1470 1470 1470 1470 1470 1469 1469 1469 1469 1469 1468
1469 1469 1469 1469 1469 1468 1468 1468 1468 1468 1468 1468 1468 1468 1468 1468 1468 1469 1469 1469 1470 1470 1470 1471 1471 1471 1471 1472 1472 1472 1472 1472 1471 1471 1471 1471 1471 1471 1471 1471 1471 1471 1472 1472 1472 1472 1471 1471 1471 1471 1471 1471 1471 1470 1470 1470 1470 1470 1470 1470 1470 1469 1469 1469 1469 1469 1468 1468 1468
1470 1470 1469 1469 1469 1469 1468 1468 1468 1468 1468 1468 1468 1468 1468 1468 1469 1469 1470 1470 1470 1471 1471 1472 1472 1472 1472 1472 1472 1472 1472 1472 1472 1472 1472 1472 1472 1472 1472 1472 1472 1472 1472 1472 1472 1472 1471 1471 1471 1471 1471 1471 1471 1470 1470 1470 1470 1470 1470 1470 1469 1469 1469 1469 1468 1468 1468 1468 1467
1470 1470 1470 1469 1469 1469 1469 1469 1469 1469 1468 1468 1468 1468 1469 1469 1469 1470 1470 1471 1471 1472 1472 1472 1472 1473 1473 1473 1473 1473 1472 1472 1472 1472 1472 1472 1472 1472 1472 1472 1472 1472 1472 1472 1472 1472 1472 1471 1471 1471 1471 1471 1471 1470 1470 1470 1470 1470 1470 1469 1469 1469 1468 1468 1468 1468 1467 1467 1467
1470 1470 1470 1470 1470 1470 1469 1469 1469 1469 1469 1469 1469 1469 1469 1470 1470 1470 1471 1472 1472 1472 1472 1473 1473 1473 1473 1473 1473 1473 1473 1473 1473 1473 1473 1472 1472 1472 1472 1472 1472 1472 1472 1472 1472 1472 1472 1472 1472 1472 1471 1471 1471 1471 1470 1470 1470 1470 1469 1469 1469 1468 1468 1468 1467 1467 1467 1466 1466
1470 1470 1470 1470 1470 1470 1470 1470 1470 1470 1470 1470 1470 1470 1470 1470 1471 1471 1472 1472 1473 1473 1473 1473 1473 1473 1473 1473 1474 1473 1473 1473 1473 1473 1473 1473 1473 1473 1473 1473 1473 1473 1473 1473 1473 1473 1473 1472 1472 1472 1472 1471 1471 1471 1470 1470 1470 1469 1469 1469 1468 1468 1467 1467 1467 1467 1466 1466 1466
1471 1471 1471 1471 1471 1471 1471 1471 1471 1471 1470 1470 1470 1471 1471 1471 1472 1472 1473 1473 1473 1474 1474 1474 1474 1474 1474 1474 1474 1474 1474 1474 1474 1474 1474 1474 1474 1474 1474 1474 1474 1473 1473 1473 1473 1473 1473 1473 1473 1472 1472 1471 1471 1471 1470 1470 1469 1469 1468 1468 1468 1467 1467 1466 1466 1466 1466 1465 1465
1471 1471 1471 1471 1471 1472 1472 1472 1472 1472 1472 1472 1472 1472 1472 1472 1473 1473 1473 1474 1474 1474 1474 1474 1474 1474 1474 1475 1475 1475 1475 1474 1474 1474 1474 1474 1474 1474 1474 1474 1474 1474 1474 1474 1474 1474 1473 1473 1473 1472 1472 1471 1471 1470 1470 1470 1469 1469 1468 1468 1467 1467 1466 1466 1466 1465 1465 1465 1465
Wind_Speed
2 4 8 12 16 19 21 22 22 21 20 18 17 16 15 13 12 11 10 9 10 11 12 12 13 14 15 15 16 16 17 17 17 17 17 17 18 19 21 22 24 25 26 26 26 27 27 27 27 27 26 25 24 24 24 24 25 26 28 31 33 35 35 36 35 33 31 30 31
4 2 1 2 6 10 14 17 20 20 20 19 19 18 17 16 15 14 13 11 10 11 11 11 12 13 13 14 14 14 15 15 14 14 15 15 16 17 18 19 20 21 22 23 24 25 26 26 25 23 21 21 21 22 23 23 24 24 26 28 29 29 29 31 31 30 28 29 31
6 5 5 4 3 3 5 8 11 14 15 16 17 16 16 16 16 15 15 14 13 12 12 12 12 13 13 14 14 14 14 14 14 14 14 14 15 16 16 17 18 19 20 21 22 23 24 25 24 22 20 20 21 23 24 24 25 25 26 27 27 27 26 25 26 26 26 28 30
7 7 6 6 5 5 4 5 6 8 9 10 12 13 13 13 13 13 13 13 13 13 12 11 12 13 13 13 13 13 14 14 15 15 15 15 15 16 16 17 18 19 20 20 21 21 21 21 19 18 18 21 24 25 25 25 25 26 26 26 26 26 26 25 24 24 25 27 29
6 6 6 5 6 6 6 6 6 6 7 7 8 8 9 10 10 11 11 11 11 11 11 10 11 12 12 11 11 12 13 13 13 13 13 15 17 18 19 20 21 22 22 23 23 22 20 17 15 16 18 21 22 22 22 23 23 25 25 26 26 26 26 26 26 25 26 27 28
3 3 3 3 3 3 3 3 4 4 4 5 5 6 6 7 8 9 9 10 10 11 11 11 10 10 10 10 10 11 12 12 11 11 12 14 16 18 21 23 24 26 26 26 24 22 18 15 14 15 17 18 18 19 20 21 22 23 24 25 26 26 27 28 28 27 27 28 29
2 2 1 1 1 1 0 0 1 1 1 3 4 5 6 6 7 8 9 10 11 11 12 12 11 9 9 9 10 11 13 13 14 14 14 16 18 20 22 24 26 27 28 27 25 21 17 15 14 14 15 15 16 18 19 20 22 23 24 25 26 26 27 28 28 27 27 27 27
3 3 3 3 3 3 3 4 4 4 4 4 4 5 6 7 7 8 9 10 10 11 11 12 11 11 10 11 12 13 14 15 16 17 17 18 20 21 23 24 26 27 27 26 23 19 15 13 12 12 13 14 15 17 19 20 22 23 24 25 26 26 27 27 27 27 26 26 26
5 4 5 5 5 5 6 6 7 7 7 7 7 7 8 8 8 8 8 9 9 9 10 10 11 12 12 13 14 15 15 15 16 16 17 18 19 20 22 23 24 24 23 21 19 16 14 13 12 12 12 13 14 16 18 20 21 23 24 25 26 26 27 27 27 26 26 25 25
6 6 6 6 7 7 7 8 8 8 7 7 7 8 9 10 10 10 10 10 10 11 11 12 12 13 14 15 16 16 16 16 16 17 18 18 19 19 20 20 19 18 17 15 15 14 14 14 14 14 15 15 17 18 20 22 24 25 25 26 26 27 27 27 27 26 25 25 25
8 8 8 8 8 8 8 8 6 5 4 4 5 7 10 11 12 12 13 13 14 14 15 15 15 16 16 17 18 18 18 18 19 19 19 20 20 20 18 17 15 14 13 12 13 13 15 16 18 19 21 22 24 25 27 29 30 29 29 28 28 27 27 26 26 26 25 24 24
9 9 9 8 8 8 7 6 3 1 1 4 6 9 11 13 14 15 15 16 17 17 18 18 18 18 18 19 19 19 20 20 20 21 21 21 21 20 19 17 16 14 14 14 14 15 16 18 20 22 24 26 28 30 33 35 35 34 33 31 29 28 27 26 25 25 25 24 23
10 10 9 9 8 7 6 2 0 2 5 8 10 12 13 14 15 16 17 17 18 18 19 19 19 19 19 19 20 20 21 21 22 22 22 22 22 21 20 19 18 17 17 17 17 18 18 19 20 21 22 24 26 29 30 31 31 32 32 31 29 27 26 25 24 24 23 22 21
10 10 10 10 9 8 6 4 5 6 9 10 12 14 15 16 16 17 17 18 18 18 19 19 19 19 20 20 20 21 21 22 22 22 22 22 22 21 20 19 19 19 19 19 19 18 17 17 17 17 18 20 23 25 25 25 26 26 27 26 25 25 25 24 23 22 21 20 19
11 11 11 11 11 10 9 8 9 10 11 13 14 15 16 17 18 18 18 18 18 18 18 18 18 19 19 20 20 20 21 21 21 21 20 20 20 20 19 19 19 19 19 18 17 15 14 14 14 15 16 18 19 21 22 22 23 23 24 24 24 25 25 24 23 21 20 19 18
12 13 13 13 12 12 12 12 13 13 14 15 16 17 18 18 18 18 18 18 18 17 17 17 18 18 18 18 18 19 19 19 19 19 19 19 19 19 19 19 19 19 18 17 16 15 15 15 16 16 17 18 19 20 21 22 23 24 25 25 26 26 26 25 23 21 19 18 18
14 14 14 14 14 14 14 14 15 16 16 17 18 19 19 19 19 18 18 18 17 17 17 17 17 17 17 17 17 17 18 18 19 19 18 18 19 19 19 19 19 19 19 18 18 17 17 18 18 19 19 19 20 21 22 23 24 25 26 26 27 27 27 27 24 21 18 17 18
15 15 15 15 16 16 16 16 17 17 18 19 19 19 19 18 18 18 17 17 17 17 16 16 16 15 15 15 16 16 16 17 17 17 17 17 17 17 16 17 17 18 18 18 18 19 19 19 19 19 19 19 19 20 21 23 24 25 26 27 27 27 28 28 27 23 19 16 16
15 16 16 16 16 17 17 18 18 18 19 19 19 18 18 17 17 17 17 17 16 16 15 15 14 14 14 14 14 14 14 13 13 14 14 15 15 14 14 14 15 16 16 17 17 18 18 18 19 18 18 18 19 19 20 22 23 24 25 26 26 27 28 29 28 24 18 14 12
15 16 16 17 17 17 18 18 18 18 18 18 17 17 17 16 16 16 16 15 15 14 13 13 12 12 13 13 13 12 11 11 12 12 13 14 13 13 12 13 13 14 15 15 16 16 17 17 17 17 17 18 18 19 20 21 22 23 23 24 24 25 26 25 22 17 13 11 8
15 16 16 16 17 17 17 17 17 17 16 16 16 15 15 15 15 14 13 13 12 11 11 10 11 11 11 12 12 11 11 11 12 12 12 12 12 12 12 12 12 13 14 14 15 15 16 16 17 17 17 17 17 18 19 20 21 21 21 21 21 20 18 15 12 10 9 7 5
15 15 15 15 15 15 16 16 16 15 15 15 14 13 13 13 12 12 11 10 10 9 9 9 9 9 10 11 11 11 12 12 11 11 10 10 10 11 11 12 12 12 13 13 14 14 15 16 16 16 16 16 16 17 17 18 18 19 19 18 16 12 10 8 8 7 5 4 3
13 14 14 14 14 14 14 14 14 14 13 13 12 11 11 10 10 9 9 8 8 8 8 8 9 9 9 10 11 11 12 12 11 10 9 8 8 9 9 10 10 10 10 11 11 12 13 13 13 14 14 14 14 14 14 14 15 15 15 13 10 7 6 6 5 4 2 1 1
11 11 11 12 12 12 12 12 12 12 11 11 10 9 9 8 8 8 7 7 7 7 8 8 8 8 8 9 9 10 11 12 11 10 8 7 7 7 7 7 7 7 8 8 8 9 9 9 10 10 10 10 10 10 10 10 10 10 8 6 4 3 3 2 1 1 1 1 0
8 9 9 9 10 10 10 10 10 9 9 9 8 8 8 7 7 6 6 7 7 7 7 7 7 7 8 9 9 10 11 11 10 9 8 7 6 6 6 6 5 6 6 6 6 6 7 7 7 7 7 7 7 6 6 5 4 3 2 1 0 1 2 2 2 2 2 1 1
6 6 7 7 7 8 8 8 7 7 7 7 7 6 6 5 5 5 5 6 6 6 5 5 6 6 7 8 9 9 9 8 7 6 5 5 4 4 4 4 4 4 4 5 4 4 4 4 4 4 3 3 3 2 2 1 1 1 2 2 3 3 3 3 3 2 2 2 1
5 5 5 5 5 5 5 6 5 5 5 4 4 3 3 3 3 3 4 4 4 4 4 4 5 5 6 6 6 6 6 5 4 4 3 3 3 3 3 3 2 2 2 2 2 2 1 1 1 1 1 2 2 3 3 3 3 3 4 4 4 3 3 3 2 2 2 2 2
3 3 3 4 4 4 4 4 4 3 3 2 2 2 1 1 1 2 2 3 3 3 3 3 3 4 4 4 4 4 4 4 3 3 3 3 3 3 3 2 1 1 2 2 2 1 1 2 3 3 4 4 4 4 4 4 4 4 4 4 4 4 3 3 3 2 2 2 2
2 3 3 3 3 4 4 4 4 4 4 3 3 2 2 1 0 1 1 2 2 2 2 2 2 3 3 3 3 4 4 5 5 5 5 5 5 4 3 3 3 3 4 3 3 2 2 3 4 4 5 5 5 5 5 4 4 4 4 4 4 4 4 3 3 3 2 2 2
2 3 3 4 4 4 5 5 5 5 5 4 4 3 2 2 1 1 1 1 1 1 1 1 2 3 3 4 5 6 6 6 7 7 7 7 6 5 5 5 5 5 4 4 4 3 3 3 4 4 4 4 5 5 5 5 5 5 5 4 4 4 3 3 3 2 2 2 2
3 4 5 5 5 6 6 6 6 5 5 4 4 3 3 3 2 2 1 1 2 2 2 3 4 5 6 6 7 7 8 8 8 8 8 7 7 7 6 6 6 5 5 5 5 5 5 4 4 4 5 5 5 5 5 5 5 5 5 4 4 3 3 3 2 2 3 3 4
5 5 6 6 7 7 6 6 6 6 5 5 4 4 3 3 2 2 2 3 3 4 5 6 6 7 7 8 8 9 10 10 10 10 10 9 9 8 7 7 7 6 6 6 6 6 6 5 5 5 5 6 6 5 5 5 5 4 4 4 3 3 3 3 3 4 4 5 6
6 6 7 7 7 7 7 6 6 6 5 5 4 4 3 3 3 3 4 5 6 6 7 7 7 8 9 10 10 11 11 11 11 11 11 10 9 9 8 8 8 8 8 8 7 7 6 6 6 6 6 6 6 6 5 5 5 4 4 3 3 3 3 4 5 6 6 7 8
6 7 7 7 7 7 7 6 6 6 5 5 5 4 4 4 5 6 6 7 7 7 8 9 9 10 11 12 12 12 12 12 12 12 12 11 10 9 9 9 9 9 9 8 8 7 7 7 7 7 6 6 6 6 5 5 4 4 4 4 4 5 5 6 7 7 8 8 9
6 7 7 7 7 7 7 6 6 6 5 5 5 5 5 6 7 7 8 9 9 9 10 11 12 12 13 13 13 12 12 12 12 12 12 11 10 10 9 9 9 9 9 8 8 7 7 7 7 6 6 6 5 5 4 4 4 4 5 5 6 6 6 7 7 7 8 8 8
5 6 6 6 6 6 6 6 6 6 6 6 6 7 7 8 9 10 11 11 11 12 13 13 13 13 13 13 13 13 13 12 12 12 11 11 10 10 9 9 9 8 8 7 7 7 6 6 6 5 5 5 4 4 4 4 5 5 5 6 6 6 6 6 6 6 6 6 5
5 5 6 6 6 7 7 7 7 7 7 8 8 9 10 11 12 13 14 13 13 14 14 14 14 14 13 13 13 13 13 12 12 11 11 10 10 9 9 8 8 7 7 7 6 6 6 5 5 5 5 4 4 4 4 4 4 5 5 5 5 5 5 4 4 4 5 5 5
5 6 6 7 7 8 8 8 8 8 9 10 11 12 13 14 15 16 16 15 15 15 15 15 14 14 13 13 12 12 12 11 11 10 10 9 9 9 8 8 7 7 7 7 6 6 5 5 4 4 4 3 3 3 3 3 3 4 4 4 4 4 4 4 4 4 5 5 5
7 8 9 9 9 10 10 10 10 11 12 13 14 15 16 17 17 17 17 16 16 15 15 15 14 14 13 12 12 11 11 10 10 10 9 9 9 8 8 7 7 7 6 6 6 5 4 4 4 3 3 2 2 2 2 3 3 3 4 4 5 5 5 5 5 5 5 5 5
11 11 11 11 12 12 12 13 13 14 15 16 17 17 18 18 18 18 17 16 16 15 14 14 13 13 12 12 11 10 10 10 10 9 9 8 8 8 7 6 6 6 5 5 5 4 4 4 4 4 3 3 3 4 4 4 5 5 5 5 6 6 6 6 6 6 6 6 5
14 14 14 14 14 14 15 15 16 16 17 17 18 18 18 18 18 17 16 16 15 14 13 13 13 12 12 11 10 10 9 9 9 8 8 7 7 6 6 5 5 5 5 4 4 4 4 4 4 5 5 5 5 5 5 5 6 6 6 6 6 6 6 6 7 7 7 7 7
Wind_Direction
282 257 249 245 243 241 240 238 238 237 238 239 240 241 243 246 250 255 261 270 275 272 265 258 254 253 253 254 257 262 268 272 275 276 276 275 273 272 271 271 271 272 273 274 276 279 282 285 284 283 282 283 286 291 296 301 305 306 301 294 289 287 284 280 278 276 276 278 281
85 88 134 228 238 240 241 241 241 241 242 242 243 244 245 246 249 251 252 255 263 270 271 268 261 255 251 251 253 257 262 268 272 273 273 271 270 269 270 271 273 274 276 276 276 277 277 278 279 280 283 286 289 292 294 296 300 304 307 307 306 305 301 291 286 284 284 285 285
120 118 119 124 142 190 222 232 236 238 240 241 243 244 246 248 250 253 254 255 257 263 270 276 274 267 259 257 258 259 260 261 263 264 264 263 263 265 267 268 269 270 271 271 272 273 273 274 275 279 283 288 290 290 290 293 297 300 304 308 311 313 311 305 297 292 289 288 285
149 147 147 147 148 155 170 191 209 220 226 232 238 241 244 246 248 249 251 252 254 257 264 273 278 274 267 263 261 258 255 253 253 255 257 258 260 262 264 267 268 270 272 275 278 280 280 279 279 284 291 296 297 297 298 299 302 305 307 308 309 310 309 307 304 299 295 290 286
166 164 166 167 167 170 176 186 196 203 211 219 228 234 238 241 242 240 240 242 244 247 250 257 266 269 266 261 257 254 251 247 242 242 248 256 262 266 270 272 275 277 280 282 285 288 289 289 290 294 300 304 307 308 308 308 309 311 311 311 310 310 310 309 308 306 302 297 293
172 171 173 176 176 176 180 190 198 206 210 210 211 217 227 234 233 231 229 229 231 233 236 240 249 258 262 259 254 251 250 250 246 244 246 254 263 269 273 276 279 281 283 285 287 289 290 291 292 295 299 302 304 306 307 309 311 313 313 314 313 313 313 313 312 310 307 303 300
207 204 204 203 203 202 221 283 300 285 253 224 216 219 224 227 226 227 226 227 229 230 232 234 238 249 260 265 262 258 256 258 261 263 264 267 271 275 277 279 281 283 284 285 286 287 288 289 290 292 295 298 301 304 306 308 310 312 313 314 314 314 315 315 314 311 308 306 303
261 266 275 282 287 293 300 306 311 312 309 298 278 262 253 247 241 238 238 238 238 239 241 243 246 253 265 274 277 276 273 272 273 275 277 279 281 283 283 284 284 284 284 283 283 284 287 291 293 295 297 301 304 307 309 310 310 311 312 313 314 314 313 313 313 311 310 307 304
280 284 289 293 296 299 301 304 307 309 310 308 300 287 275 268 263 260 258 257 255 256 259 262 265 269 274 279 283 285 285 284 283 282 282 284 285 287 287 287 286 285 283 282 282 284 287 292 296 299 302 304 307 311 314 316 316 315 313 313 313 312 311 311 312 313 312 309 306
288 291 294 297 298 299 302 306 311 316 319 316 304 289 280 275 273 272 272 272 273 276 279 281 282 283 284 285 286 286 286 286 284 283 282 282 283 286 288 288 286 284 281 280 281 282 285 287 289 291 293 296 301 306 311 315 318 319 318 316 314 313 312 312 313 314 313 311 307
291 293 295 297 298 299 301 308 321 332 332 309 283 277 277 278 278 278 279 280 284 287 289 289 289 290 290 289 289 288 287 285 283 281 279 279 281 283 285 284 282 278 275 274 276 278 281 283 285 286 287 288 290 293 296 299 303 307 312 315 316 315 314 314 313 312 311 309 306
291 291 292 293 295 297 301 311 338 358 243 241 252 265 274 279 281 282 284 287 290 292 293 292 293 293 293 292 291 289 287 285 283 281 279 279 279 280 280 278 274 270 267 266 268 273 278 283 286 288 289 289 288 287 286 285 286 288 292 297 305 311 314 313 311 309 307 305 304
287 287 288 288 289 291 294 302 210 201 222 237 252 265 274 280 283 286 289 291 293 294 294 294 294 294 293 292 291 289 287 285 283 282 280 279 279 278 277 274 270 267 265 265 268 272 276 282 287 290 291 290 288 285 283 280 277 276 277 282 292 303 310 310 308 305 303 302 302
282 282 282 282 281 279 271 244 221 224 236 248 259 268 275 281 285 288 291 293 294 294 294 294 294 293 292 291 289 287 285 284 283 282 280 279 278 277 275 273 270 269 269 271 273 276 279 282 284 286 286 285 283 281 278 276 274 273 274 279 289 299 305 306 303 300 299 299 300
278 278 278 277 275 271 262 249 244 247 253 259 266 273 279 283 287 290 292 293 293 293 293 294 293 292 291 290 288 286 284 282 281 280 278 277 276 275 275 274 274 275 277 278 280 281 281 281 281 279 278 277 276 274 273 273 273 274 277 283 291 298 302 302 299 297 295 297 299
276 276 276 274 272 269 264 259 258 261 264 267 272 278 282 286 289 291 292 292 293 293 294 294 293 292 291 289 287 284 282 280 277 275 273 272 272 274 275 277 280 282 283 283 282 281 279 278 277 276 276 275 275 275 276 276 277 278 281 286 291 294 297 297 296 294 294 295 296
275 275 274 274 272 270 268 265 266 268 271 274 278 281 284 286 288 290 291 292 293 294 294 293 292 290 289 286 284 282 279 276 273 271 269 270 272 275 279 282 285 285 285 283 280 278 277 276 277 277 278 279 279 280 280 280 280 281 283 286 289 290 291 293 294 294 293 292 290
274 274 273 273 272 272 271 270 271 273 275 277 279 281 283 285 287 289 290 291 291 292 291 290 287 285 282 279 278 278 276 274 272 271 271 273 276 280 284 286 287 285 282 279 277 276 276 277 278 279 280 281 282 282 282 282 282 283 285 286 287 287 288 288 289 288 287 285 282
274 273 273 273 273 273 274 273 274 275 276 277 279 281 283 284 286 287 288 289 288 288 286 284 280 277 275 272 271 272 273 274 275 275 277 279 281 284 287 288 287 284 280 278 276 276 276 278 279 281 283 284 284 284 284 283 284 284 285 285 286 285 284 281 279 277 276 276 278
275 274 274 274 275 275 275 275 275 275 276 277 278 280 282 283 284 286 286 285 284 283 281 278 275 273 272 271 270 270 272 274 276 278 279 280 282 286 288 288 286 285 283 282 282 282 282 283 284 286 287 287 287 286 285 284 284 284 283 282 281 279 275 272 269 268 271 275 282
277 277 277 277 277 276 275 275 275 276 276 277 279 280 282 282 283 283 282 280 280 278 276 274 273 274 277 279 278 277 277 278 278 278 280 282 284 286 288 288 289 289 290 291 291 292 292 292 292 291 290 289 287 285 283 282 281 281 280 278 276 272 268 266 267 270 274 280 288
280 280 280 279 278 277 277 276 277 277 278 279 279 280 280 279 278 277 276 275 274 272 270 270 273 277 281 284 286 287 288 287 286 285 285 286 286 286 287 289 291 293 294 296 298 298 298 296 293 291 288 285 282 280 279 278 278 278 278 277 275 274 274 277 279 280 282 286 287
282 282 281 281 280 279 278 278 278 278 278 277 277 275 273 271 270 269 268 268 267 266 268 272 276 280 285 289 292 294 295 295 294 294 293 291 290 290 290 291 292 293 295 296 297 296 294 292 289 286 283 280 278 277 278 277 277 277 277 277 278 281 285 284 280 279 280 282 278
284 283 283 283 282 280 278 276 276 275 273 271 268 265 262 260 259 259 260 262 265 268 273 279 286 292 296 299 301 300 297 295 295 296 298 298 296 294 294 294 295 297 298 299 298 297 294 291 288 286 286 285 284 285 285 285 280 276 274 276 279 275 265 258 244 185 122 119 127
285 283 282 280 279 276 273 270 267 265 262 258 257 255 254 253 254 256 259 264 270 274 280 288 297 304 307 308 307 304 299 295 294 295 297 296 294 292 293 296 300 304 307 307 308 307 305 301 298 298 299 300 301 300 298 294 287 279 272 264 198 171 155 130 113 104 103 98 84
281 277 272 269 267 264 259 254 250 247 246 246 248 250 251 253 256 260 265 270 276 281 289 298 306 311 312 312 309 306 302 299 296 294 291 289 288 290 293 295 298 301 303 308 314 318 319 315 311 312 318 327 333 338 347 3 39 94 117 125 127 121 108 95 84 77 71 66 55
270 261 256 253 247 240 233 231 228 226 227 232 235 238 243 251 259 263 267 272 280 290 299 304 308 310 311 311 308 305 304 305 305 301 297 293 291 290 287 282 281 287 301 324 339 343 340 333 346 44 58 62 66 72 79 85 92 101 108 109 106 98 85 72 59 47 37 34 34
246 241 236 230 218 210 207 204 196 187 184 183 180 185 197 222 246 260 270 278 287 296 300 299 304 309 312 311 308 310 315 322 328 328 323 314 306 299 291 287 309 40 59 66 71 87 113 123 118 111 103 97 93 92 93 94 94 95 92 86 78 70 63 54 42 30 24 20 15
218 216 207 192 183 180 176 164 154 146 141 138 136 136 138 148 218 291 302 301 296 289 286 296 311 323 329 335 338 344 352 358 2 2 358 352 345 341 344 4 37 54 61 66 72 84 100 107 107 106 104 102 98 96 92 85 79 73 67 61 56 51 47 40 32 25 15 6 346
192 183 171 162 156 149 144 139 136 133 130 126 122 114 102 84 61 34 0 331 305 287 295 332 0 15 21 21 21 24 30 34 36 34 30 25 22 23 31 45 54 56 56 55 58 64 70 74 77 81 82 81 79 76 71 66 61 56 51 47 44 41 37 30 21 8 353 332 309
161 156 150 144 138 133 132 133 131 127 122 115 107 98 87 77 68 53 25 354 342 350 17 37 45 47 47 47 51 58 63 67 67 66 63 61 61 64 68 71 70 67 64 63 65 68 68 68 66 64 63 63 62 61 59 56 53 49 44 41 36 31 23 11 354 332 314 302 295
140 140 139 136 133 132 132 130 125 117 110 103 96 91 87 83 77 64 48 33 33 43 54 60 62 65 67 71 76 80 83 85 85 84 81 79 79 82 84 86 85 84 82 81 81 80 78 76 71 67 65 63 60 57 54 51 46 42 37 30 21 10 354 334 317 306 299 295 293
138 137 136 134 132 131 128 122 115 109 102 99 95 93 91 90 87 81 74 67 65 67 71 74 78 81 84 86 87 89 89 89 87 84 81 78 78 81 85 89 89 88 87 85 84 81 79 75 70 66 61 56 52 47 43 38 33 27 17 5 351 335 320 309 302 298 296 294 292
144 140 137 134 130 126 121 116 109 104 102 102 102 100 99 97 95 92 88 85 83 84 86 89 90 92 93 93 91 90 89 86 83 79 75 73 72 73 76 81 82 81 81 78 76 73 69 65 61 56 51 45 39 34 28 21 12 1 347 333 322 312 305 300 297 295 293 291 290
144 138 133 129 124 120 117 113 109 107 108 110 109 107 106 104 99 96 93 92 93 94 96 96 97 98 98 96 94 90 85 81 77 74 72 71 69 69 69 71 72 72 71 69 66 62 58 54 50 45 40 33 26 18 9 358 345 333 322 314 307 302 298 296 294 292 291 290 288
137 130 125 121 119 116 114 112 111 112 114 113 111 109 107 105 100 97 95 97 99 100 101 101 101 100 98 95 92 88 83 78 75 72 71 70 69 67 66 64 65 64 63 61 57 52 47 42 37 32 25 17 7 357 345 333 321 312 306 300 296 294 293 292 292 293 293 294 295
126 121 117 114 113 110 109 108 111 113 113 112 110 108 106 103 101 100 100 102 104 105 104 103 101 98 94 91 88 84 80 77 73 69 68 67 66 64 61 58 56 54 53 51 47 42 37 32 26 19 12 2 351 339 328 315 305 299 295 292 291 293 297 300 303 305 308 309 311
119 114 112 110 108 106 106 106 109 111 111 110 108 107 105 104 103 104 105 107 107 106 104 102 99 95 90 85 81 78 75 72 69 65 63 61 59 57 53 50 47 46 46 44 42 38 34 28 24 19 12 0 346 333 319 308 302 300 300 303 304 309 315 319 321 321 321 320 319
114 111 108 106 105 104 105 107 108 109 109 108 108 107 106 106 106 107 108 108 107 104 102 99 95 91 85 80 75 71 69 67 64 61 58 56 54 52 49 46 45 46 47 48 47 45 42 39 35 29 22 12 1 350 342 335 332 330 328 328 327 327 328 328 327 326 324 323 322
109 107 105 105 105 106 107 108 108 108 108 108 108 108 108 108 108 108 108 107 105 102 99 95 91 87 82 77 72 68 66 63 61 59 56 55 55 54 52 50 50 52 55 55 55 53 49 44 37 27 19 11 7 3 358 354 351 349 346 342 341 338 335 331 329 327 326 323 322
106 105 106 106 107 108 109 109 109 109 109 109 109 109 109 109 109 108 107 105 103 100 97 93 89 86 82 77 73 68 65 63 61 60 59 60 61 61 60 57 56 55 55 52 50 45 39 33 26 20 14 12 10 9 7 3 0 358 354 350 346 343 340 334 331 329 328 326 323